TimeCDT,TemperatureF,Dew PointF,Humidity,Sea Level PressureIn,VisibilityMPH,Wind Direction,Wind SpeedMPH,Gust SpeedMPH,PrecipitationIn,Events,Conditions,WindDirDegrees,DateUTC
12:51 AM,80.1,73.9,81,30.03,10.0,Calm,Calm,-,N/A,,Clear,0,2013-09-10 05:51:00
1:51 AM,81.0,73.9,79,30.02,10.0,East,3.5,-,N/A,,Clear,100,2013-09-10 06:51:00
2:51 AM,81.0,73.9,79,30.02,10.0,East,3.5,-,N/A,,Clear,90,2013-09-10 07:51:00
3:51 AM,81.0,73.9,79,30.02,10.0,East,3.5,-,N/A,,Clear,100,2013-09-10 08:51:00
4:51 AM,81.0,73.9,79,30.02,10.0,East,4.6,-,N/A,,Clear,90,2013-09-10 09:51:00
5:51 AM,81.0,73.9,79,30.04,10.0,East,3.5,-,N/A,,Clear,80,2013-09-10 10:51:00
6:51 AM,81.0,73.9,79,30.06,9.0,East,5.8,-,N/A,,Clear,80,2013-09-10 11:51:00
7:51 AM,82.9,73.9,74,30.08,9.0,ENE,8.1,-,N/A,,Clear,70,2013-09-10 12:51:00
8:51 AM,84.0,73.0,69,30.09,9.0,East,9.2,-,N/A,,Clear,80,2013-09-10 13:51:00
9:51 AM,86.0,73.0,65,30.10,10.0,East,11.5,-,N/A,,Partly Cloudy,90,2013-09-10 14:51:00
10:51 AM,87.1,73.0,63,30.11,10.0,East,11.5,18.4,N/A,,Scattered Clouds,100,2013-09-10 15:51:00
11:51 AM,87.1,73.0,63,30.11,10.0,East,13.8,20.7,N/A,,Scattered Clouds,90,2013-09-10 16:51:00
12:51 PM,87.1,73.0,63,30.10,10.0,East,15.0,-,N/A,,Scattered Clouds,80,2013-09-10 17:51:00
1:51 PM,87.1,72.0,61,30.09,10.0,East,9.2,-,N/A,,Partly Cloudy,80,2013-09-10 18:51:00
2:51 PM,87.1,70.0,57,30.07,10.0,East,13.8,47.2,N/A,,Partly Cloudy,90,2013-09-10 19:51:00
3:51 PM,88.0,73.0,61,30.05,10.0,East,10.4,-,N/A,,Partly Cloudy,80,2013-09-10 20:51:00
4:51 PM,86.0,73.9,67,30.05,10.0,East,11.5,-,N/A,,Clear,100,2013-09-10 21:51:00
5:51 PM,86.0,73.9,67,30.04,10.0,East,9.2,-,N/A,,Clear,100,2013-09-10 22:51:00
6:51 PM,84.0,73.0,69,30.05,10.0,East,8.1,-,N/A,,Partly Cloudy,100,2013-09-10 23:51:00
7:51 PM,82.9,72.0,69,30.06,10.0,East,9.2,-,N/A,,Clear,100,2013-09-11 00:51:00
8:51 PM,82.9,73.0,72,30.08,10.0,East,6.9,-,N/A,,Clear,90,2013-09-11 01:51:00
9:51 PM,82.0,73.0,74,30.09,10.0,East,5.8,-,N/A,,Clear,100,2013-09-11 02:51:00
10:51 PM,82.0,72.0,71,30.09,10.0,East,8.1,-,N/A,,Clear,100,2013-09-11 03:51:00
11:51 PM,81.0,72.0,74,30.08,10.0,East,6.9,-,N/A,,Clear,90,2013-09-11 04:51:00